• In Lithuania
  • List of Countries
  • For 7 days
  • Water Temperature
  • Satellite Maps
  • Weather Map
  • Weather Widgets
  • user-avatar
    Login

    Hourly Weather Santa Bárbara

    Today, 22 October, Sunday

    Time Temperature Precipitation Wind Pressure Humidity
    00:00 +22°C° 0 mm 0 mps 721 mmHg 98%
    01:00 +22°C° 0 mm 0 mps 720 mmHg 98%
    02:00 +22°C° 0 mm 0 mps 720 mmHg 98%
    03:00 +22°C° 0 mm 0 mps 720 mmHg 98%
    04:00 +21°C° 0 mm 0 mps 720 mmHg 98%
    05:00 +21°C° 0 mm 0 mps 720 mmHg 98%
    06:00 +21°C° 0 mm 0 mps 720 mmHg 98%
    07:00 +23°C° 0 mm 0 mps 721 mmHg 90%
    08:00 +25°C° 0 mm 0 mps 721 mmHg 83%
    09:00 +27°C° 0 mm 0 mps 722 mmHg 76%
    10:00 +29°C° 0.1 mm 1 mps 722 mmHg 74%
    11:00 +30°C° 0.1 mm 1 mps 721 mmHg 72%
    12:00 +30°C° 0.1 mm 1 mps 721 mmHg 70%
    13:00 +30°C° 0.6 mm 1 mps 720 mmHg 72%
    14:00 +29°C° 0.6 mm 1 mps 719 mmHg 75%
    15:00 +29°C° 0.6 mm 1 mps 719 mmHg 77%
    16:00 +28°C° 0.9 mm 1 mps 719 mmHg 82%
    17:00 +27°C° 0.9 mm 1 mps 719 mmHg 86%
    18:00 +24°C° 0.9 mm 0 mps 720 mmHg 91%
    19:00 +23°C° 1.3 mm 0 mps 720 mmHg 92%
    20:00 +23°C° 1.3 mm 0 mps 721 mmHg 94%
    21:00 +22°C° 1.3 mm 0 mps 721 mmHg 96%
    22:00 +22°C° 0.7 mm 0 mps 721 mmHg 96%
    23:00 +22°C° 0.7 mm 0 mps 721 mmHg 96%

    Tomorrow, 23 October, Monday

    Time Temperature Precipitation Wind Pressure Humidity
    00:00 +22°C° 0.7 mm 0 mps 721 mmHg 96%
    01:00 +22°C° 0.4 mm 0 mps 721 mmHg 97%
    02:00 +22°C° 0.4 mm 0 mps 720 mmHg 97%
    03:00 +22°C° 0.4 mm 0 mps 720 mmHg 97%
    04:00 +22°C° 0.1 mm 0 mps 720 mmHg 97%
    05:00 +21°C° 0.1 mm 0 mps 720 mmHg 97%
    06:00 +21°C° 0.1 mm 0 mps 720 mmHg 97%
    07:00 +25°C° 0.1 mm 1 mps 721 mmHg 92%
    08:00 +26°C° 0.1 mm 1 mps 721 mmHg 87%
    09:00 +28°C° 0.1 mm 1 mps 722 mmHg 82%
    10:00 +28°C° 0.6 mm 1 mps 722 mmHg 82%
    11:00 +28°C° 0.6 mm 1 mps 721 mmHg 81%
    12:00 +29°C° 0.6 mm 1 mps 720 mmHg 81%
    13:00 +29°C° 1.1 mm 1 mps 720 mmHg 83%
    14:00 +28°C° 1.1 mm 1 mps 719 mmHg 86%
    15:00 +28°C° 1.1 mm 1 mps 719 mmHg 88%
    16:00 +27°C° 1 mm 1 mps 719 mmHg 91%
    17:00 +26°C° 1 mm 1 mps 719 mmHg 93%
    18:00 +25°C° 1 mm 1 mps 719 mmHg 96%
    19:00 +23°C° 0.6 mm 0 mps 720 mmHg 96%
    20:00 +23°C° 0.6 mm 0 mps 721 mmHg 96%
    21:00 +22°C° 0.6 mm 0 mps 721 mmHg 97%
    22:00 +22°C° 0.2 mm 0 mps 721 mmHg 97%
    23:00 +22°C° 0.2 mm 0 mps 721 mmHg 97%

    Day after tomorrow, 24 October, Tuesday

    Time Temperature Precipitation Wind Pressure Humidity
    00:00 +22°C° 0.2 mm 0 mps 721 mmHg 97%
    01:00 +22°C° 0.2 mm 0 mps 720 mmHg 97%
    02:00 +22°C° 0.2 mm 0 mps 720 mmHg 97%
    03:00 +22°C° 0.2 mm 0 mps 719 mmHg 97%
    04:00 +22°C° 0.1 mm 0 mps 719 mmHg 97%
    05:00 +22°C° 0.1 mm 0 mps 719 mmHg 98%
    06:00 +22°C° 0.1 mm 0 mps 720 mmHg 98%
    07:00 +23°C° 0.1 mm 0 mps 720 mmHg 94%
    08:00 +26°C° 0.1 mm 1 mps 721 mmHg 90%
    09:00 +27°C° 0.1 mm 1 mps 722 mmHg 87%
    10:00 +27°C° 0.5 mm 1 mps 721 mmHg 85%
    11:00 +27°C° 0.5 mm 1 mps 721 mmHg 84%
    12:00 +28°C° 0.5 mm 1 mps 720 mmHg 83%
    13:00 +27°C° 1.3 mm 1 mps 720 mmHg 86%
    14:00 +26°C° 1.3 mm 2 mps 719 mmHg 90%
    15:00 +26°C° 1.3 mm 2 mps 719 mmHg 93%
    16:00 +25°C° 0.7 mm 2 mps 719 mmHg 95%
    17:00 +24°C° 0.7 mm 2 mps 720 mmHg 96%
    18:00 +23°C° 0.7 mm 1 mps 720 mmHg 98%
    19:00 +23°C° 0.4 mm 1 mps 721 mmHg 98%
    20:00 +23°C° 0.4 mm 1 mps 721 mmHg 98%
    21:00 +23°C° 0.4 mm 1 mps 722 mmHg 98%
    22:00 +22°C° 0.8 mm 1 mps 722 mmHg 98%
    23:00 +22°C° 0.8 mm 1 mps 722 mmHg 98%

    25 October, Wednesday

    Time Temperature Precipitation Wind Pressure Humidity
    00:00 +22°C° 0.8 mm 1 mps 721 mmHg 98%
    01:00 +22°C° 0.7 mm 1 mps 721 mmHg 98%
    02:00 +22°C° 0.7 mm 1 mps 721 mmHg 98%
    03:00 +22°C° 0.7 mm 1 mps 720 mmHg 97%
    04:00 +22°C° 0.7 mm 1 mps 720 mmHg 97%
    05:00 +22°C° 0.7 mm 1 mps 721 mmHg 97%
    06:00 +22°C° 0.7 mm 1 mps 721 mmHg 97%
    07:00 +22°C° 0.3 mm 1 mps 722 mmHg 96%
    08:00 +22°C° 0.3 mm 1 mps 722 mmHg 95%
    09:00 +23°C° 0.3 mm 1 mps 722 mmHg 94%
    10:00 +23°C° 0.5 mm 1 mps 722 mmHg 94%
    11:00 +23°C° 0.5 mm 1 mps 721 mmHg 93%
    12:00 +23°C° 0.5 mm 2 mps 721 mmHg 93%
    13:00 +23°C° 1.1 mm 1 mps 720 mmHg 94%
    14:00 +23°C° 1.1 mm 1 mps 720 mmHg 96%
    15:00 +22°C° 1.1 mm 1 mps 719 mmHg 97%
    16:00 +21°C° 1.4 mm 2 mps 720 mmHg 97%
    17:00 +21°C° 1.4 mm 2 mps 720 mmHg 98%
    18:00 +21°C° 1.4 mm 2 mps 721 mmHg 98%
    19:00 +21°C° 1.3 mm 2 mps 722 mmHg 98%
    20:00 +20°C° 1.3 mm 2 mps 722 mmHg 98%
    21:00 +21°C° 1.3 mm 1 mps 723 mmHg 97%
    22:00 +21°C° 1 mm 1 mps 722 mmHg 97%
    23:00 +21°C° 1 mm 1 mps 722 mmHg 97%

    26 October, Thursday

    Time Temperature Precipitation Wind Pressure Humidity
    00:00 +21°C° 1 mm 1 mps 721 mmHg 97%
    01:00 +21°C° 1 mm 1 mps 721 mmHg 97%
    02:00 +21°C° 1 mm 1 mps 721 mmHg 97%
    03:00 +21°C° 1 mm 1 mps 720 mmHg 97%
    04:00 +21°C° 0.8 mm 1 mps 721 mmHg 97%
    05:00 +21°C° 0.8 mm 1 mps 721 mmHg 97%
    06:00 +21°C° 0.8 mm 1 mps 721 mmHg 97%
    07:00 +21°C° 0.6 mm 1 mps 722 mmHg 97%
    08:00 +21°C° 0.6 mm 1 mps 722 mmHg 96%
    09:00 +21°C° 0.6 mm 1 mps 723 mmHg 96%
    10:00 +21°C° 0.4 mm 1 mps 722 mmHg 95%
    11:00 +22°C° 0.4 mm 1 mps 722 mmHg 94%
    12:00 +22°C° 0.4 mm 1 mps 721 mmHg 94%
    13:00 +22°C° 0.3 mm 1 mps 721 mmHg 93%
    14:00 +22°C° 0.3 mm 1 mps 720 mmHg 92%
    15:00 +22°C° 0.3 mm 1 mps 720 mmHg 91%
    16:00 +21°C° 0.1 mm 1 mps 720 mmHg 92%
    17:00 +21°C° 0.1 mm 1 mps 721 mmHg 94%
    18:00 +20°C° 0.1 mm 1 mps 721 mmHg 95%
    19:00 +20°C° 0.1 mm 1 mps 721 mmHg 95%
    20:00 +20°C° 0.1 mm 1 mps 722 mmHg 95%
    21:00 +20°C° 0.1 mm 1 mps 722 mmHg 95%
    22:00 +20°C° 0 mm 1 mps 721 mmHg 95%
    23:00 +20°C° 0 mm 1 mps 721 mmHg 95%

    27 October, Friday

    Time Temperature Precipitation Wind Pressure Humidity
    00:00 +20°C° 0 mm 1 mps 720 mmHg 95%
    01:00 +20°C° 0 mm 1 mps 720 mmHg 95%
    02:00 +19°C° 0 mm 1 mps 720 mmHg 95%
    03:00 +19°C° 0 mm 1 mps 719 mmHg 95%
    04:00 +19°C° 0 mm 1 mps 719 mmHg 95%
    05:00 +19°C° 0 mm 1 mps 720 mmHg 94%
    06:00 +19°C° 0 mm 1 mps 720 mmHg 94%
    07:00 +20°C° 0 mm 0 mps 720 mmHg 85%
    08:00 +22°C° 0 mm 0 mps 721 mmHg 77%
    09:00 +24°C° 0 mm 0 mps 721 mmHg 69%
    10:00 +26°C° 0 mm 0 mps 721 mmHg 65%
    11:00 +29°C° 0 mm 1 mps 720 mmHg 61%
    12:00 +31°C° 0 mm 1 mps 719 mmHg 56%
    13:00 +30°C° 0.1 mm 1 mps 719 mmHg 61%
    14:00 +28°C° 0.1 mm 0 mps 718 mmHg 65%
    15:00 +27°C° 0.1 mm 0 mps 718 mmHg 69%
    16:00 +25°C° 0.3 mm 0 mps 718 mmHg 76%
    17:00 +24°C° 0.3 mm 0 mps 718 mmHg 83%
    18:00 +22°C° 0.3 mm 0 mps 719 mmHg 90%
    19:00 +22°C° 1.1 mm 0 mps 719 mmHg 92%
    20:00 +22°C° 1.1 mm 0 mps 719 mmHg 94%
    21:00 +21°C° 1.1 mm 0 mps 720 mmHg 96%
    22:00 +21°C° 0.4 mm 0 mps 719 mmHg 96%
    23:00 +21°C° 0.4 mm 0 mps 719 mmHg 97%
    Show more